Date,TemperatureHighF,TemperatureAvgF,TemperatureLowF,DewpointHighF,DewpointAvgF,DewpointLowF,HumidityHigh,HumidityAvg,HumidityLow,PressureMaxIn,PressureMinIn,WindSpeedMaxMPH,WindSpeedAvgMPH,GustSpeedMaxMPH,PrecipitationSumIn
2013-3-1,35.0,32.4,31.0,32.0,29.1,25.0,98,88,77,0.00,40.00,9,3,16,0.19
2013-3-2,36.0,32.5,30.0,30.0,24.0,18.0,94,71,51,0.00,40.00,8,4,13,0.29
2013-3-3,38.0,35.4,31.0,32.0,30.2,27.0,99,81,68,0.00,40.00,19,8,34,0.13
2013-3-4,37.0,34.2,33.0,35.0,33.1,31.0,99,95,77,0.00,40.00,15,4,26,0.61
2013-3-5,43.0,34.4,31.0,33.0,29.4,26.0,96,82,62,0.00,40.00,4,2,6,0.01
2013-3-6,36.0,32.5,30.0,34.0,31.2,27.0,100,95,82,0.00,40.00,5,2,7,0.18
2013-3-7,36.0,33.3,32.0,34.0,32.1,30.0,100,96,80,0.00,40.00,38,18,68,0.53
2013-3-8,37.0,33.2,32.0,36.0,32.4,30.0,100,97,81,0.00,40.00,20,7,32,0.60
2013-3-9,37.0,33.1,31.0,35.0,32.5,30.0,100,97,85,0.00,40.00,15,4,32,0.68
2013-3-10,32.0,30.5,29.0,31.0,28.5,21.0,99,92,63,0.00,40.00,13,4,19,0.09
2013-3-11,38.0,34.6,32.0,21.0,16.3,12.0,63,47,37,0.00,40.00,37,19,63,0.22
2013-3-12,39.0,31.6,27.0,13.0,8.6,3.0,46,38,30,0.00,40.00,22,6,47,0.01
2013-3-13,33.0,27.2,24.0,14.0,4.6,-2.0,64,38,27,0.00,40.00,14,5,19,0.00
2013-3-14,33.0,27.1,22.0,29.0,22.6,14.0,98,84,61,0.00,40.00,16,6,23,0.07
2013-3-15,41.0,31.4,28.0,20.0,12.3,4.0,66,45,33,0.00,40.00,9,3,11,0.12
2013-3-16,42.0,32.2,26.0,13.0,6.8,0.0,42,34,23,0.00,40.00,5,2,6,0.02
2013-3-17,33.0,30.9,28.0,13.0,6.2,1.0,45,35,26,0.00,40.00,43,22,60,0.00
2013-3-18,36.0,29.4,26.0,10.0,4.7,0.0,47,34,29,0.00,40.00,33,8,53,0.00
2013-3-19,28.0,25.3,22.0,4.0,-1.1,-9.0,38,31,21,0.00,40.00,59,34,78,0.00
2013-3-20,26.0,22.0,19.0,2.0,-4.7,-12.0,39,30,19,0.00,40.00,71,42,189,0.01
2013-3-21,35.0,26.4,21.0,6.0,1.8,-2.0,44,34,26,0.00,40.00,17,6,34,0.00
2013-3-22,32.0,28.5,24.0,32.0,25.5,5.0,100,90,40,0.00,40.00,22,8,30,0.03
2013-3-23,40.0,33.1,31.0,36.0,31.6,28.0,100,95,83,0.00,40.00,6,3,8,0.26
2013-3-24,35.0,33.1,30.0,34.0,31.2,26.0,99,93,75,0.00,40.00,6,3,9,0.26
2013-3-25,32.0,25.3,17.0,32.0,14.5,-2.0,100,68,33,0.00,40.00,32,12,112,0.05
2013-3-26,29.0,19.2,16.0,1.0,-3.8,-7.0,46,35,23,0.00,40.00,32,8,112,0.01
2013-3-27,33.0,23.1,17.0,8.0,-0.9,-11.0,42,34,26,0.00,40.00,10,4,26,0.00
2013-3-28,32.0,29.5,27.0,32.0,28.8,25.0,100,97,92,0.00,40.00,12,8,31,0.00
2013-3-29,35.0,31.3,31.0,34.0,26.7,-99.9,100,94,93,0.00,40.00,9,4,28,0.33
2013-3-30,44.0,34.0,32.0,37.0,30.3,-99.9,100,92,71,0.00,40.00,4,2,7,0.35
2013-3-31,45.0,34.8,32.0,35.0,32.6,30.0,100,92,69,0.00,40.00,4,2,6,0.28